When you browse on this site, cookies collect data to enhance your experience and personalize the content and advertising you see.
Visit our Privacy Policy to learn more. By continuing to use the site, you agree to this use of cookies and data.
  • Em Portugal
  • Lista de países
  • Para 7 dias
  • Temperatura da água
  • Mapas de satélite
  • Mapa do tempo
  • Widgets de tempo
  • user-avatar
    Iniciar Sessão

    Previsão horária em Ozernoe

    Hoje, 23 Maio, Quinta-feira

    Tempo Temperatura Precipitação Vento Pressão Humidade
    00:00 +9°C° 0 mm 1 m/s 740 mmHg 95%
    01:00 +9°C° 0 mm 1 m/s 740 mmHg 95%
    02:00 +8°C° 0 mm 1 m/s 740 mmHg 96%
    03:00 +8°C° 0 mm 1 m/s 740 mmHg 96%
    04:00 +8°C° 0 mm 1 m/s 740 mmHg 95%
    05:00 +9°C° 0 mm 1 m/s 741 mmHg 94%
    06:00 +9°C° 0 mm 1 m/s 741 mmHg 94%
    07:00 +11°C° 0 mm 1 m/s 741 mmHg 85%
    08:00 +13°C° 0 mm 1 m/s 742 mmHg 76%
    09:00 +16°C° 0 mm 1 m/s 742 mmHg 65%
    10:00 +18°C° 0 mm 1 m/s 742 mmHg 60%
    11:00 +18°C° 0 mm 2 m/s 742 mmHg 55%
    12:00 +19°C° 0 mm 2 m/s 742 mmHg 49%
    13:00 +19°C° 0 mm 2 m/s 742 mmHg 49%
    14:00 +19°C° 0 mm 3 m/s 742 mmHg 49%
    15:00 +20°C° 0 mm 3 m/s 742 mmHg 49%
    16:00 +19°C° 0 mm 2 m/s 742 mmHg 53%
    17:00 +18°C° 0 mm 2 m/s 742 mmHg 57%
    18:00 +18°C° 0 mm 2 m/s 743 mmHg 61%
    19:00 +15°C° 0 mm 1 m/s 743 mmHg 69%
    20:00 +13°C° 0 mm 1 m/s 743 mmHg 77%
    21:00 +11°C° 0 mm 1 m/s 743 mmHg 83%
    22:00 +11°C° 0 mm 1 m/s 744 mmHg 83%
    23:00 +10°C° 0 mm 1 m/s 744 mmHg 84%

    Amanhã, 24 Maio, Sexta-feira

    Tempo Temperatura Precipitação Vento Pressão Humidade
    00:00 +10°C° 0 mm 1 m/s 744 mmHg 84%
    01:00 +10°C° 0 mm 1 m/s 744 mmHg 85%
    02:00 +9°C° 0 mm 1 m/s 744 mmHg 85%
    03:00 +9°C° 0 mm 1 m/s 744 mmHg 86%
    04:00 +10°C° 0 mm 1 m/s 744 mmHg 83%
    05:00 +10°C° 0 mm 1 m/s 744 mmHg 79%
    06:00 +11°C° 0 mm 1 m/s 745 mmHg 76%
    07:00 +14°C° 0 mm 2 m/s 744 mmHg 66%
    08:00 +17°C° 0 mm 2 m/s 744 mmHg 57%
    09:00 +20°C° 0 mm 2 m/s 744 mmHg 47%
    10:00 +23°C° 0 mm 2 m/s 743 mmHg 42%
    11:00 +25°C° 0 mm 2 m/s 743 mmHg 38%
    12:00 +27°C° 0 mm 2 m/s 743 mmHg 33%
    13:00 +28°C° 0 mm 2 m/s 742 mmHg 32%
    14:00 +29°C° 0 mm 3 m/s 742 mmHg 32%
    15:00 +29°C° 0 mm 3 m/s 742 mmHg 31%
    16:00 +28°C° 0 mm 2 m/s 742 mmHg 37%
    17:00 +27°C° 0 mm 2 m/s 741 mmHg 43%
    18:00 +25°C° 0 mm 2 m/s 741 mmHg 49%
    19:00 +23°C° 0 mm 2 m/s 741 mmHg 52%
    20:00 +20°C° 0 mm 2 m/s 741 mmHg 54%
    21:00 +18°C° 0 mm 2 m/s 741 mmHg 57%
    22:00 +17°C° 0 mm 2 m/s 741 mmHg 57%
    23:00 +17°C° 0 mm 2 m/s 741 mmHg 57%

    Depois de amanhã, 25 Maio, Sábado

    Tempo Temperatura Precipitação Vento Pressão Humidade
    00:00 +16°C° 0 mm 2 m/s 741 mmHg 58%
    01:00 +15°C° 0 mm 2 m/s 741 mmHg 58%
    02:00 +15°C° 0 mm 2 m/s 741 mmHg 58%
    03:00 +15°C° 0 mm 2 m/s 741 mmHg 58%
    04:00 +15°C° 0 mm 2 m/s 741 mmHg 60%
    05:00 +16°C° 0 mm 2 m/s 741 mmHg 62%
    06:00 +17°C° 0 mm 2 m/s 741 mmHg 64%
    07:00 +20°C° 0 mm 3 m/s 741 mmHg 56%
    08:00 +24°C° 0 mm 3 m/s 741 mmHg 49%
    09:00 +28°C° 0 mm 3 m/s 741 mmHg 41%
    10:00 +30°C° 0 mm 4 m/s 741 mmHg 37%
    11:00 +32°C° 0 mm 4 m/s 742 mmHg 33%
    12:00 +34°C° 0 mm 4 m/s 742 mmHg 28%
    13:00 +35°C° 0 mm 4 m/s 742 mmHg 28%
    14:00 +35°C° 0 mm 4 m/s 742 mmHg 27%
    15:00 +36°C° 0 mm 4 m/s 742 mmHg 27%
    16:00 +35°C° 0 mm 4 m/s 742 mmHg 34%
    17:00 +33°C° 0 mm 3 m/s 742 mmHg 41%
    18:00 +30°C° 0 mm 2 m/s 742 mmHg 48%
    19:00 +28°C° 0 mm 2 m/s 743 mmHg 49%
    20:00 +26°C° 0 mm 2 m/s 743 mmHg 51%
    21:00 +24°C° 0 mm 2 m/s 744 mmHg 52%
    22:00 +23°C° 0 mm 2 m/s 744 mmHg 51%
    23:00 +21°C° 0 mm 2 m/s 744 mmHg 49%

    26 Maio, Domingo

    Tempo Temperatura Precipitação Vento Pressão Humidade
    00:00 +21°C° 0 mm 2 m/s 745 mmHg 47%
    01:00 +20°C° 0 mm 2 m/s 745 mmHg 48%
    02:00 +19°C° 0 mm 2 m/s 745 mmHg 49%
    03:00 +19°C° 0 mm 2 m/s 745 mmHg 50%
    04:00 +19°C° 0 mm 2 m/s 745 mmHg 54%
    05:00 +20°C° 0 mm 1 m/s 746 mmHg 57%
    06:00 +20°C° 0 mm 1 m/s 746 mmHg 61%
    07:00 +23°C° 0 mm 1 m/s 746 mmHg 54%
    08:00 +26°C° 0 mm 2 m/s 746 mmHg 46%
    09:00 +29°C° 0 mm 2 m/s 746 mmHg 39%
    10:00 +30°C° 0 mm 2 m/s 746 mmHg 33%
    11:00 +32°C° 0 mm 2 m/s 746 mmHg 27%
    12:00 +34°C° 0 mm 2 m/s 746 mmHg 21%
    13:00 +34°C° 0 mm 3 m/s 745 mmHg 21%
    14:00 +35°C° 0 mm 3 m/s 745 mmHg 21%
    15:00 +35°C° 0 mm 4 m/s 744 mmHg 20%
    16:00 +34°C° 0 mm 3 m/s 744 mmHg 28%
    17:00 +32°C° 0 mm 1 m/s 743 mmHg 36%
    18:00 +28°C° 0 mm 0 m/s 743 mmHg 44%
    19:00 +28°C° 0 mm 1 m/s 743 mmHg 45%
    20:00 +25°C° 0 mm 1 m/s 743 mmHg 45%
    21:00 +23°C° 0 mm 2 m/s 743 mmHg 46%
    22:00 +20°C° 0 mm 2 m/s 743 mmHg 43%
    23:00 +19°C° 0 mm 2 m/s 743 mmHg 40%

    27 Maio, Segunda-feira

    Tempo Temperatura Precipitação Vento Pressão Humidade
    00:00 +18°C° 0 mm 2 m/s 743 mmHg 37%
    01:00 +18°C° 0 mm 2 m/s 743 mmHg 42%
    02:00 +17°C° 0 mm 2 m/s 742 mmHg 47%
    03:00 +17°C° 0 mm 2 m/s 742 mmHg 52%
    04:00 +17°C° 0 mm 2 m/s 742 mmHg 54%
    05:00 +18°C° 0 mm 2 m/s 742 mmHg 56%
    06:00 +18°C° 0 mm 2 m/s 742 mmHg 57%
    07:00 +21°C° 0 mm 3 m/s 742 mmHg 49%
    08:00 +26°C° 0 mm 4 m/s 742 mmHg 40%
    09:00 +29°C° 0 mm 5 m/s 741 mmHg 32%
    10:00 +30°C° 0 mm 6 m/s 741 mmHg 29%
    11:00 +32°C° 0 mm 6 m/s 740 mmHg 27%
    12:00 +33°C° 0 mm 7 m/s 740 mmHg 24%
    13:00 +33°C° 0 mm 7 m/s 739 mmHg 24%
    14:00 +32°C° 0 mm 7 m/s 739 mmHg 24%
    15:00 +32°C° 0 mm 7 m/s 738 mmHg 25%
    16:00 +29°C° 0 mm 5 m/s 738 mmHg 31%
    17:00 +27°C° 0 mm 4 m/s 738 mmHg 37%
    18:00 +25°C° 0 mm 3 m/s 738 mmHg 42%
    19:00 +24°C° 0 mm 3 m/s 738 mmHg 45%
    20:00 +21°C° 0 mm 2 m/s 738 mmHg 47%
    21:00 +20°C° 0 mm 2 m/s 739 mmHg 49%
    22:00 +19°C° 0.3 mm 2 m/s 738 mmHg 58%
    23:00 +18°C° 0.3 mm 2 m/s 738 mmHg 67%

    28 Maio, Terça-feira

    Tempo Temperatura Precipitação Vento Pressão Humidade
    00:00 +17°C° 0.3 mm 2 m/s 738 mmHg 76%
    01:00 +14°C° 2.5 mm 3 m/s 737 mmHg 83%
    02:00 +12°C° 2.5 mm 3 m/s 737 mmHg 89%
    03:00 +11°C° 2.5 mm 4 m/s 736 mmHg 95%
    04:00 +10°C° 3.1 mm 4 m/s 736 mmHg 96%
    05:00 +7°C° 3.1 mm 4 m/s 737 mmHg 97%
    06:00 +7°C° 3.1 mm 3 m/s 737 mmHg 97%
    07:00 +7°C° 3.9 mm 3 m/s 736 mmHg 98%
    08:00 +7°C° 3.9 mm 3 m/s 736 mmHg 98%
    09:00 +7°C° 3.9 mm 3 m/s 736 mmHg 98%
    10:00 +7°C° 2.1 mm 3 m/s 735 mmHg 97%
    11:00 +8°C° 2.1 mm 3 m/s 735 mmHg 97%
    12:00 +8°C° 2.1 mm 3 m/s 735 mmHg 96%
    13:00 +8°C° 1.8 mm 3 m/s 735 mmHg 96%
    14:00 +9°C° 1.8 mm 3 m/s 735 mmHg 96%
    15:00 +9°C° 1.8 mm 3 m/s 735 mmHg 96%
    16:00 +10°C° 0.6 mm 3 m/s 735 mmHg 96%
    17:00 +10°C° 0.6 mm 3 m/s 735 mmHg 95%
    18:00 +10°C° 0.6 mm 3 m/s 735 mmHg 94%
    19:00 +10°C° 0.3 mm 2 m/s 736 mmHg 94%
    20:00 +10°C° 0.3 mm 2 m/s 736 mmHg 95%
    21:00 +9°C° 0.3 mm 2 m/s 736 mmHg 95%
    22:00 +9°C° 0 mm 2 m/s 736 mmHg 95%
    23:00 +9°C° 0 mm 2 m/s 736 mmHg 94%
    Mostrar mais